Volver al catálogo

HERMES-2

ActivoCienciaSSO
NORAD 63243·PAYLOAD·🇮🇹 Italy

Lanzado Mar 15, 2025 desde Vandenberg Space Force Base

Loading…

Próximos Pases (próximas 24 horas)

TLE

ActualizadoSource: Space-Track

Época: Sep 14, 2026, 11:53 UTC

1 63243U 25052AK  26257.49576654  .00005777  00000-0  19096-3 0  9994
2 63243  97.3754 151.9887 0005336 137.7167 222.4486 15.31747201 83687

Sigue HERMES-2 en tiempo real con AllMySat

Download on the App Store